I1SXT-5 Weather Reports


Display with metric or nautical units.
time (UTC)temp
F
wind
direction
speed
MPH
gust
MPH
rain 1hr
in
rain 24hr
in
rain mn
in
humidity
%
barometer
mb
20260507115807 0 0.0 0.0 0.00 0.00 0.00 48 1013.6
20260507114805 0 0.0 0.0 0.00 0.00 0.00 50 1013.7
20260507114304 0 0.0 0.0 0.00 0.00 0.00 51 1013.9
20260507113802 0 0.0 0.0 0.00 0.00 0.00 49 1013.9
20260507112259 0 0.0 0.0 0.00 0.00 0.00 49 1013.9
20260507111757 0 0.0 0.0 0.00 0.00 0.00 47 1014.0
20260507110755 0 0.0 0.0 0.00 0.00 0.00 47 1013.8
20260507110254 0 0.0 0.0 0.00 0.00 0.00 46 1013.8
20260507105753 0 0.0 0.0 0.00 0.00 0.00 50 1013.8
20260507105252 0 0.0 0.0 0.00 0.00 0.00 48 1013.7
20260507104249 0 0.0 0.0 0.00 0.00 0.00 50 1013.8
20260507103748 0 0.0 0.0 0.00 0.00 0.00 49 1013.8
20260507103246 0 0.0 0.0 0.00 0.00 0.00 49 1013.8
20260507102745 0 0.0 0.0 0.00 0.00 0.00 51 1013.9
20260507101242 0 0.0 0.0 0.00 0.00 0.00 50 1013.9
20260507100740 0 0.0 0.0 0.00 0.00 0.00 49 1013.8
20260507100239 0 0.0 0.0 0.00 0.00 0.00 48 1013.9
20260507095738 0 0.0 0.0 0.00 0.00 0.00 48 1014.0
20260507095237 0 0.0 0.0 0.00 0.00 0.00 47 1013.8
20260507094736 0 0.0 0.0 0.00 0.00 0.00 47 1013.8
20260507094234 0 0.0 0.0 0.00 0.00 0.00 48 1013.8
20260507093733 0 0.0 0.0 0.00 0.00 0.00 47 1013.9
20260507093232 0 0.0 0.0 0.00 0.00 0.00 47 1013.9
20260507092730 0 0.0 0.0 0.00 0.00 0.00 46 1013.9
20260507092229 0 0.0 0.0 0.00 0.00 0.00 47 1013.9
20260507091728 0 0.0 0.0 0.00 0.00 0.00 46 1013.9
20260507091227 0 0.0 0.0 0.00 0.00 0.00 46 1013.9
20260507090725 0 0.0 0.0 0.00 0.00 0.00 46 1013.8
20260507090224 0 0.0 0.0 0.00 0.00 0.00 48 1013.8
20260507085723 0 0.0 0.0 0.00 0.00 0.00 48 1013.8
20260507085222 0 0.0 0.0 0.00 0.00 0.00 47 1013.8
20260507084219 0 0.0 0.0 0.00 0.00 0.00 48 1013.6
20260507083718 0 0.0 0.0 0.00 0.00 0.00 46 1013.5
20260507083217 0 0.0 0.0 0.00 0.00 0.00 46 1013.5
20260507082716 0 0.0 0.0 0.00 0.00 0.00 49 1013.5
20260507082215 0 0.0 0.0 0.00 0.00 0.00 49 1013.4
20260507081713 0 0.0 0.0 0.00 0.00 0.00 49 1013.4
20260507081212 0 0.0 0.0 0.00 0.00 0.00 49 1013.4
20260507080711 0 0.0 0.0 0.00 0.00 0.00 48 1013.4
20260507080210 0 0.0 0.0 0.00 0.00 0.00 49 1013.4
20260507075709 0 0.0 0.0 0.00 0.00 0.00 49 1013.3
20260507075207 0 0.0 0.0 0.00 0.00 0.00 49 1013.3
20260507074706 0 0.0 0.0 0.00 0.00 0.00 50 1013.3
20260507074205 0 0.0 0.0 0.00 0.00 0.00 51 1013.4
20260507073704 0 0.0 0.0 0.00 0.00 0.00 50 1013.3
20260507073202 0 0.0 0.0 0.00 0.00 0.00 49 1013.3
20260507072701 0 0.0 0.0 0.00 0.00 0.00 51 1013.2
20260507072200 0 0.0 0.0 0.00 0.00 0.00 51 1013.2
20260507071658 0 0.0 0.0 0.00 0.00 0.00 51 1013.2
20260507071157 0 0.0 0.0 0.00 0.00 0.00 51 1013.2
20260507070656 0 0.0 0.0 0.00 0.00 0.00 52 1013.2
20260507070155 0 0.0 0.0 0.00 0.00 0.00 50 1013.2
20260507065654 0 0.0 0.0 0.00 0.00 0.00 50 1013.2
20260507065152 0 0.0 0.0 0.00 0.00 0.00 51 1013.1
20260507064651 0 0.0 0.0 0.00 0.00 0.00 51 1013.1
20260507064150 0 0.0 0.0 0.00 0.00 0.00 52 1013.1
20260507063649 0 0.0 0.0 0.00 0.00 0.00 54 1013.0
20260507063148 0 0.0 0.0 0.00 0.00 0.00 55 1013.0
20260507062646 0 0.0 0.0 0.00 0.00 0.00 56 1013.0
20260507061644 0 0.0 0.0 0.00 0.00 0.00 55 1012.9
20260507061143 0 0.0 0.0 0.00 0.00 0.00 55 1012.9
20260507060641 0 0.0 0.0 0.00 0.00 0.00 50 1012.8
20260507060140 0 0.0 0.0 0.00 0.00 0.00 50 1012.8
20260507055639 0 0.0 0.0 0.00 0.00 0.00 45 1012.8
20260507055137 0 0.0 0.0 0.00 0.00 0.00 48 1012.9
20260507054636 0 0.0 0.0 0.00 0.00 0.00 53 1012.9
20260507054135 0 0.0 0.0 0.00 0.00 0.00 54 1012.8
20260507053634 0 0.0 0.0 0.00 0.00 0.00 53 1012.7
20260507053133 0 0.0 0.0 0.00 0.00 0.00 61 1012.7
20260507052631 0 0.0 0.0 0.00 0.00 0.00 62 1012.6
20260507052130 0 0.0 0.0 0.00 0.00 0.00 63 1012.6
20260507051629 0 0.0 0.0 0.00 0.00 0.00 62 1012.6
20260507050627 0 0.0 0.0 0.00 0.00 0.00 61 1012.6
20260507050125 0 0.0 0.0 0.00 0.00 0.00 62 1012.4
20260507045624 0 0.0 0.0 0.00 0.00 0.00 62 1012.5
20260507045123 0 0.0 0.0 0.00 0.00 0.00 63 1012.4
20260507044621 0 0.0 0.0 0.00 0.00 0.00 64 1012.4
20260507044120 0 0.0 0.0 0.00 0.00 0.00 66 1012.3
20260507043619 0 0.0 0.0 0.00 0.00 0.00 66 1012.3
20260507043118 0 0.0 0.0 0.00 0.00 0.00 65 1012.3
20260507042617 0 0.0 0.0 0.00 0.00 0.00 64 1012.3
20260507042115 0 0.0 0.0 0.00 0.00 0.00 65 1012.3
20260507041113 0 0.0 0.0 0.00 0.00 0.00 67 1012.3
20260507040612 0 0.0 0.0 0.00 0.00 0.00 66 1012.2
20260507040110 0 0.0 0.0 0.00 0.00 0.00 66 1012.1
20260507035609 0 0.0 0.0 0.00 0.00 0.00 65 1012.1
20260507035108 0 0.0 0.0 0.00 0.00 0.00 65 1012.2
20260507034607 0 0.0 0.0 0.00 0.00 0.00 65 1012.1
20260507034106 0 0.0 0.0 0.00 0.00 0.00 65 1012.2
20260507033604 0 0.0 0.0 0.00 0.00 0.00 66 1012.1
20260507033103 0 0.0 0.0 0.00 0.00 0.00 67 1012.2
20260507032602 0 0.0 0.0 0.00 0.00 0.00 67 1012.1
20260507032101 0 0.0 0.0 0.00 0.00 0.00 64 1012.1
20260507031559 0 0.0 0.0 0.00 0.00 0.00 65 1012.1
20260507031058 0 0.0 0.0 0.00 0.00 0.00 65 1012.1
20260507030557 0 0.0 0.0 0.00 0.00 0.00 66 1012.1
20260507030056 0 0.0 0.0 0.00 0.00 0.00 66 1012.1
20260507025554 0 0.0 0.0 0.00 0.00 0.00 67 1012.1
20260507025053 0 0.0 0.0 0.00 0.00 0.00 65 1012.1
20260507024051 0 0.0 0.0 0.00 0.00 0.00 66 1012.1
20260507023550 0 0.0 0.0 0.00 0.00 0.00 67 1012.2
20260507023048 0 0.0 0.0 0.00 0.00 0.00 66 1012.1
20260507022046 0 0.0 0.0 0.00 0.00 0.00 68 1012.1
20260507021043 0 0.0 0.0 0.00 0.00 0.00 67 1012.1
20260507020542 0 0.0 0.0 0.00 0.00 0.00 65 1012.1
20260507015039 0 0.0 0.0 0.00 0.00 0.00 64 1012.2
20260507014537 0 0.0 0.0 0.00 0.00 0.00 64 1012.1
20260507014036 0 0.0 0.0 0.00 0.00 0.00 64 1012.1
20260507013535 0 0.0 0.0 0.00 0.00 0.00 65 1012.1
20260507013034 0 0.0 0.0 0.00 0.00 0.00 66 1012.1
20260507012532 0 0.0 0.0 0.00 0.00 0.00 66 1012.1
20260507012032 0 0.0 0.0 0.00 0.00 0.00 64 1012.1
20260507011530 0 0.0 0.0 0.00 0.00 0.00 65 1012.1
20260507011029 0 0.0 0.0 0.00 0.00 0.00 65 1012.1
20260507010527 0 0.0 0.0 0.00 0.00 0.00 64 1012.1
20260507010026 0 0.0 0.0 0.00 0.00 0.00 64 1012.2
20260507005525 0 0.0 0.0 0.00 0.00 0.00 64 1012.3
20260507005024 0 0.0 0.0 0.00 0.00 0.00 65 1012.3
20260507004523 0 0.0 0.0 0.00 0.00 0.00 65 1012.3
20260507004021 0 0.0 0.0 0.00 0.00 0.00 64 1012.3
20260507003520 0 0.0 0.0 0.00 0.00 0.00 64 1012.2
20260507003019 0 0.0 0.0 0.00 0.00 0.00 64 1012.2
20260507002517 0 0.0 0.0 0.00 0.00 0.00 64 1012.2
20260507002016 0 0.0 0.0 0.00 0.00 0.00 64 1012.2
20260507001515 0 0.0 0.0 0.00 0.00 0.00 64 1012.2
20260507001014 0 0.0 0.0 0.00 0.00 0.00 63 1012.2
20260507000513 0 0.0 0.0 0.00 0.00 0.00 63 1012.2
20260507000011 0 0.0 0.0 0.00 0.00 0.00 64 1012.2
20260506235510 0 0.0 0.0 0.00 0.00 0.00 63 1012.3
20260506235009 0 0.0 0.0 0.00 0.00 0.00 63 1012.3
20260506234508 0 0.0 0.0 0.00 0.00 0.00 63 1012.3
20260506234006 0 0.0 0.0 0.00 0.00 0.00 63 1012.4
20260506233505 0 0.0 0.0 0.00 0.00 0.00 64 1012.4
20260506233004 0 0.0 0.0 0.00 0.00 0.00 64 1012.4
20260506232503 0 0.0 0.0 0.00 0.00 0.00 64 1012.4
20260506232002 0 0.0 0.0 0.00 0.00 0.00 65 1012.4
20260506231500 0 0.0 0.0 0.00 0.00 0.00 67 1012.4
20260506230959 0 0.0 0.0 0.00 0.00 0.00 65 1012.4
20260506230458 0 0.0 0.0 0.00 0.00 0.00 63 1012.4
20260506225957 0 0.0 0.0 0.00 0.00 0.00 63 1012.4
20260506225455 0 0.0 0.0 0.00 0.00 0.00 63 1012.4
20260506224954 0 0.0 0.0 0.00 0.00 0.00 62 1012.3
20260506224453 0 0.0 0.0 0.00 0.00 0.00 63 1012.4
20260506223952 0 0.0 0.0 0.00 0.00 0.00 64 1012.3
20260506223451 0 0.0 0.0 0.00 0.00 0.00 64 1012.3
20260506222949 0 0.0 0.0 0.00 0.00 0.00 61 1012.3
20260506222448 0 0.0 0.0 0.00 0.00 0.00 61 1012.3
20260506221947 0 0.0 0.0 0.00 0.00 0.00 61 1012.3
20260506221446 0 0.0 0.0 0.00 0.00 0.00 62 1012.3
20260506220944 0 0.0 0.0 0.00 0.00 0.00 63 1012.3
20260506220443 0 0.0 0.0 0.00 0.00 0.00 62 1012.4
20260506215942 0 0.0 0.0 0.00 0.00 0.00 61 1012.3
20260506215441 0 0.0 0.0 0.00 0.00 0.00 61 1012.3
20260506214939 0 0.0 0.0 0.00 0.00 0.00 62 1012.4
20260506214438 0 0.0 0.0 0.00 0.00 0.00 62 1012.4
20260506213436 0 0.0 0.0 0.00 0.00 0.00 61 1012.3
20260506212934 0 0.0 0.0 0.00 0.00 0.00 62 1012.3
20260506212433 0 0.0 0.0 0.00 0.00 0.00 63 1012.3
20260506211932 0 0.0 0.0 0.00 0.00 0.00 64 1012.3
20260506211431 0 0.0 0.0 0.00 0.00 0.00 63 1012.2
20260506210930 0 0.0 0.0 0.00 0.00 0.00 63 1012.1
20260506210428 0 0.0 0.0 0.00 0.00 0.00 61 1012.1
20260506205927 0 0.0 0.0 0.00 0.00 0.00 61 1012.1
20260506205426 0 0.0 0.0 0.00 0.00 0.00 63 1012.1
20260506204925 0 0.0 0.0 0.00 0.00 0.00 63 1012.2
20260506204423 0 0.0 0.0 0.00 0.00 0.00 63 1012.2
20260506203922 0 0.0 0.0 0.00 0.00 0.00 63 1012.1
20260506203421 0 0.0 0.0 0.00 0.00 0.00 60 1012.0
20260506202418 0 0.0 0.0 0.00 0.00 0.00 59 1012.0
20260506201917 0 0.0 0.0 0.00 0.00 0.00 60 1012.0
20260506201416 0 0.0 0.0 0.00 0.00 0.00 60 1011.9
20260506200915 0 0.0 0.0 0.00 0.00 0.00 60 1011.8
20260506200413 0 0.0 0.0 0.00 0.00 0.00 60 1011.8
20260506195912 0 0.0 0.0 0.00 0.00 0.00 61 1011.7
20260506195411 0 0.0 0.0 0.00 0.00 0.00 60 1011.7
20260506194910 0 0.0 0.0 0.00 0.00 0.00 60 1011.6
20260506194408 0 0.0 0.0 0.00 0.00 0.00 58 1011.5
20260506193907 0 0.0 0.0 0.00 0.00 0.00 57 1011.3
20260506193406 0 0.0 0.0 0.00 0.00 0.00 55 1011.3
20260506192905 0 0.0 0.0 0.00 0.00 0.00 55 1011.2
20260506192404 0 0.0 0.0 0.00 0.00 0.00 55 1011.2
20260506191902 0 0.0 0.0 0.00 0.00 0.00 55 1011.1
20260506191401 0 0.0 0.0 0.00 0.00 0.00 55 1011.1
20260506190900 0 0.0 0.0 0.00 0.00 0.00 55 1011.0
20260506190359 0 0.0 0.0 0.00 0.00 0.00 55 1010.9
20260506185858 0 0.0 0.0 0.00 0.00 0.00 55 1010.8
20260506185356 0 0.0 0.0 0.00 0.00 0.00 55 1010.8
20260506184855 0 0.0 0.0 0.00 0.00 0.00 55 1010.8
20260506184354 0 0.0 0.0 0.00 0.00 0.00 54 1010.7
20260506183853 0 0.0 0.0 0.00 0.00 0.00 54 1010.7
20260506183351 0 0.0 0.0 0.00 0.00 0.00 54 1010.6
20260506182850 0 0.0 0.0 0.00 0.00 0.00 53 1010.6
20260506182349 0 0.0 0.0 0.00 0.00 0.00 53 1010.5
20260506181848 0 0.0 0.0 0.00 0.00 0.00 53 1010.4
20260506180845 0 0.0 0.0 0.00 0.00 0.00 52 1010.3
20260506180344 0 0.0 0.0 0.00 0.00 0.00 52 1010.3
20260506175342 0 0.0 0.0 0.00 0.00 0.00 52 1010.2
20260506174339 0 0.0 0.0 0.00 0.00 0.00 52 1010.1
20260506173838 0 0.0 0.0 0.00 0.00 0.00 53 1010.1
20260506173337 0 0.0 0.0 0.00 0.00 0.00 52 1010.0
20260506172835 0 0.0 0.0 0.00 0.00 0.00 50 1010.0
20260506172334 0 0.0 0.0 0.00 0.00 0.00 51 1010.0
20260506171833 0 0.0 0.0 0.00 0.00 0.00 49 1009.9
20260506171332 0 0.0 0.0 0.00 0.00 0.00 51 1009.9
20260506165828 0 0.0 0.0 0.00 0.00 0.00 50 1009.8
20260506165327 0 0.0 0.0 0.00 0.00 0.00 50 1009.8
20260506164825 0 0.0 0.0 0.00 0.00 0.00 51 1009.8
20260506164324 0 0.0 0.0 0.00 0.00 0.00 51 1009.8
20260506163823 0 0.0 0.0 0.00 0.00 0.00 52 1009.8
20260506163322 0 0.0 0.0 0.00 0.00 0.00 51 1009.8
20260506162821 0 0.0 0.0 0.00 0.00 0.00 51 1009.9
20260506162320 0 0.0 0.0 0.00 0.00 0.00 51 1009.9
20260506161818 0 0.0 0.0 0.00 0.00 0.00 51 1009.8
20260506161317 0 0.0 0.0 0.00 0.00 0.00 52 1009.8
20260506160816 0 0.0 0.0 0.00 0.00 0.00 53 1009.8
20260506160315 0 0.0 0.0 0.00 0.00 0.00 56 1009.8
20260506155813 0 0.0 0.0 0.00 0.00 0.00 55 1009.8
20260506155312 0 0.0 0.0 0.00 0.00 0.00 54 1009.8
20260506154811 0 0.0 0.0 0.00 0.00 0.00 54 1009.8
20260506154309 0 0.0 0.0 0.00 0.00 0.00 54 1009.7
20260506153808 0 0.0 0.0 0.00 0.00 0.00 54 1009.8
20260506153307 0 0.0 0.0 0.00 0.00 0.00 54 1009.7
20260506152806 0 0.0 0.0 0.00 0.00 0.00 54 1009.7
20260506152306 0 0.0 0.0 0.00 0.00 0.00 54 1009.6
20260506151803 0 0.0 0.0 0.00 0.00 0.00 53 1009.5
20260506151302 0 0.0 0.0 0.00 0.00 0.00 54 1009.5
20260506150801 0 0.0 0.0 0.00 0.00 0.00 50 1009.6
20260506150304 0 0.0 0.0 0.00 0.00 0.00 49 1009.6
20260506145758 0 0.0 0.0 0.00 0.00 0.00 51 1009.6
20260506145257 0 0.0 0.0 0.00 0.00 0.00 51 1009.6
20260506144756 0 0.0 0.0 0.00 0.00 0.00 54 1009.6
20260506144255 0 0.0 0.0 0.00 0.00 0.00 52 1009.6
20260506143753 0 0.0 0.0 0.00 0.00 0.00 52 1009.5
20260506143252 0 0.0 0.0 0.00 0.00 0.00 53 1009.5
20260506141748 0 0.0 0.0 0.00 0.00 0.00 51 1009.4
20260506141247 0 0.0 0.0 0.00 0.00 0.00 52 1009.4
20260506140746 0 0.0 0.0 0.00 0.00 0.00 53 1009.4
20260506140245 0 0.0 0.0 0.00 0.00 0.00 53 1009.5
20260506135743 0 0.0 0.0 0.00 0.00 0.00 51 1009.4
20260506135243 0 0.0 0.0 0.00 0.00 0.00 52 1009.4
20260506134741 0 0.0 0.0 0.00 0.00 0.00 52 1009.5
20260506134240 0 0.0 0.0 0.00 0.00 0.00 53 1009.6
20260506133739 0 0.0 0.0 0.00 0.00 0.00 55 1009.6
20260506133238 0 0.0 0.0 0.00 0.00 0.00 54 1009.7
20260506132736 0 0.0 0.0 0.00 0.00 0.00 56 1009.7
20260506132235 0 0.0 0.0 0.00 0.00 0.00 56 1009.8
20260506131734 0 0.0 0.0 0.00 0.00 0.00 57 1009.8
20260506131232 0 0.0 0.0 0.00 0.00 0.00 58 1009.8
20260506130731 0 0.0 0.0 0.00 0.00 0.00 57 1009.8
20260506130230 0 0.0 0.0 0.00 0.00 0.00 56 1009.8
20260506125729 0 0.0 0.0 0.00 0.00 0.00 56 1009.8
20260506124726 0 0.0 0.0 0.00 0.00 0.00 53 1009.8
20260506124225 0 0.0 0.0 0.00 0.00 0.00 55 1009.8
20260506123724 0 0.0 0.0 0.00 0.00 0.00 55 1009.8
20260506123223 0 0.0 0.0 0.00 0.00 0.00 53 1009.8
20260506122722 0 0.0 0.0 0.00 0.00 0.00 55 1009.8
20260506122220 0 0.0 0.0 0.00 0.00 0.00 56 1009.8
20260506121218 0 0.0 0.0 0.00 0.00 0.00 55 1009.7
20260506120717 0 0.0 0.0 0.00 0.00 0.00 54 1009.7